Time,TemperatureF,DewpointF,PressureIn,WindDirection,WindDirectionDegrees,WindSpeedMPH,WindSpeedGustMPH,Humidity,HourlyPrecipIn,Conditions,Clouds,dailyrainin,SoftwareType,DateUTC
2013-03-01 00:00:00,25.0,13.0,-100.00,NNE,15,6.0,13.0,61,-99.99,,,-99.99,,2013-03-01 06:00:00,
2013-03-01 00:22:00,25.0,13.0,-100.00,NNE,15,6.0,13.0,61,-99.99,,,-99.99,,2013-03-01 06:22:00,
2013-03-01 00:32:00,25.0,13.0,-100.00,NNE,15,6.0,13.0,61,-99.99,,,-99.99,,2013-03-01 06:32:00,
2013-03-01 00:42:00,25.0,13.0,-100.00,NNE,15,6.0,13.0,61,-99.99,,,-99.99,,2013-03-01 06:42:00,
2013-03-01 00:52:00,25.0,13.0,-100.00,NNE,15,6.0,13.0,61,-99.99,,,-99.99,,2013-03-01 06:52:00,
2013-03-01 01:01:00,25.0,13.0,-100.00,North,5,4.0,12.0,61,-99.99,,,-99.99,,2013-03-01 07:01:00,
2013-03-01 01:22:00,25.0,13.0,-100.00,North,5,4.0,12.0,61,-99.99,,,-99.99,,2013-03-01 07:22:00,
2013-03-01 01:32:00,25.0,13.0,-100.00,North,5,4.0,12.0,61,-99.99,,,-99.99,,2013-03-01 07:32:00,
2013-03-01 01:42:00,25.0,13.0,-100.00,North,5,4.0,12.0,61,-99.99,,,-99.99,,2013-03-01 07:42:00,
2013-03-01 01:52:00,25.0,13.0,-100.00,North,5,4.0,12.0,61,-99.99,,,-99.99,,2013-03-01 07:52:00,
2013-03-01 02:01:00,24.0,12.0,-100.00,North,5,6.0,12.0,61,-99.99,,,-99.99,,2013-03-01 08:01:00,
2013-03-01 02:22:00,24.0,12.0,-100.00,North,5,6.0,12.0,61,-99.99,,,-99.99,,2013-03-01 08:22:00,
2013-03-01 02:32:00,24.0,12.0,-100.00,North,5,6.0,12.0,61,-99.99,,,-99.99,,2013-03-01 08:32:00,
2013-03-01 02:43:00,24.0,12.0,-100.00,North,5,6.0,12.0,61,-99.99,,,-99.99,,2013-03-01 08:43:00,
2013-03-01 02:53:00,24.0,12.0,-100.00,North,5,6.0,12.0,61,-99.99,,,-99.99,,2013-03-01 08:53:00,
2013-03-01 03:01:00,24.0,12.0,-100.00,North,5,4.0,9.0,61,-99.99,,,-99.99,,2013-03-01 09:01:00,
2013-03-01 03:22:00,24.0,12.0,-100.00,North,5,4.0,9.0,61,-99.99,,,-99.99,,2013-03-01 09:22:00,
2013-03-01 03:32:00,24.0,12.0,-100.00,North,5,4.0,9.0,61,-99.99,,,-99.99,,2013-03-01 09:32:00,
2013-03-01 03:42:00,24.0,12.0,-100.00,North,5,4.0,9.0,61,-99.99,,,-99.99,,2013-03-01 09:42:00,
2013-03-01 03:52:00,24.0,12.0,-100.00,North,5,4.0,9.0,61,-99.99,,,-99.99,,2013-03-01 09:52:00,
2013-03-01 04:01:00,23.0,11.0,-100.00,North,10,4.0,9.0,61,-99.99,,,-99.99,,2013-03-01 10:01:00,
2013-03-01 04:22:00,23.0,11.0,-100.00,North,10,4.0,9.0,61,-99.99,,,-99.99,,2013-03-01 10:22:00,
2013-03-01 04:32:00,23.0,11.0,-100.00,North,10,4.0,9.0,61,-99.99,,,-99.99,,2013-03-01 10:32:00,
2013-03-01 04:42:00,23.0,11.0,-100.00,North,10,4.0,9.0,61,-99.99,,,-99.99,,2013-03-01 10:42:00,
2013-03-01 04:53:00,23.0,11.0,-100.00,North,10,4.0,9.0,61,-99.99,,,-99.99,,2013-03-01 10:53:00,
2013-03-01 05:01:00,23.0,11.0,-100.00,ESE,105,1.0,7.0,61,-99.99,,,-99.99,,2013-03-01 11:01:00,
2013-03-01 05:23:00,23.0,11.0,-100.00,ESE,105,1.0,7.0,61,-99.99,,,-99.99,,2013-03-01 11:23:00,
2013-03-01 05:32:00,23.0,11.0,-100.00,ESE,105,1.0,7.0,61,-99.99,,,-99.99,,2013-03-01 11:32:00,
2013-03-01 05:42:00,23.0,11.0,-100.00,ESE,105,1.0,7.0,61,-99.99,,,-99.99,,2013-03-01 11:42:00,
2013-03-01 05:52:00,23.0,11.0,-100.00,ESE,105,1.0,7.0,61,-99.99,,,-99.99,,2013-03-01 11:52:00,
2013-03-01 06:01:00,23.0,11.0,-100.00,North,5,3.0,11.0,61,-99.99,,,-99.99,,2013-03-01 12:01:00,
2013-03-01 06:22:00,23.0,11.0,-100.00,North,5,3.0,11.0,61,-99.99,,,-99.99,,2013-03-01 12:22:00,
2013-03-01 06:32:00,23.0,11.0,-100.00,North,5,3.0,11.0,61,-99.99,,,-99.99,,2013-03-01 12:32:00,
2013-03-01 06:42:00,23.0,11.0,-100.00,North,5,3.0,11.0,61,-99.99,,,-99.99,,2013-03-01 12:42:00,
2013-03-01 06:52:00,23.0,11.0,-100.00,North,5,3.0,11.0,61,-99.99,,,-99.99,,2013-03-01 12:52:00,
2013-03-01 07:00:00,23.0,11.0,-100.00,ESE,115,5.0,10.0,62,-99.99,,,-99.99,,2013-03-01 13:00:00,
2013-03-01 07:22:00,23.0,11.0,-100.00,ESE,115,5.0,10.0,62,-99.99,,,-99.99,,2013-03-01 13:22:00,
2013-03-01 07:32:00,23.0,11.0,-100.00,ESE,115,5.0,10.0,62,-99.99,,,-99.99,,2013-03-01 13:32:00,
2013-03-01 07:42:00,23.0,11.0,-100.00,ESE,115,5.0,10.0,62,-99.99,,,-99.99,,2013-03-01 13:42:00,
2013-03-01 07:52:00,23.0,11.0,-100.00,ESE,115,5.0,10.0,62,-99.99,,,-99.99,,2013-03-01 13:52:00,
2013-03-01 08:01:00,23.0,12.0,-100.00,North,10,5.0,12.0,62,-99.99,,,-99.99,,2013-03-01 14:01:00,
2013-03-01 08:22:00,23.0,12.0,-100.00,North,10,5.0,12.0,62,-99.99,,,-99.99,,2013-03-01 14:22:00,
2013-03-01 08:32:00,23.0,12.0,-100.00,North,10,5.0,12.0,62,-99.99,,,-99.99,,2013-03-01 14:32:00,
2013-03-01 08:42:00,23.0,12.0,-100.00,North,10,5.0,12.0,62,-99.99,,,-99.99,,2013-03-01 14:42:00,
2013-03-01 08:52:00,23.0,12.0,-100.00,North,10,5.0,12.0,62,-99.99,,,-99.99,,2013-03-01 14:52:00,
2013-03-01 09:00:00,23.0,12.0,-100.00,North,10,6.0,14.0,62,-99.99,,,-99.99,,2013-03-01 15:00:00,
2013-03-01 09:21:00,23.0,12.0,-100.00,North,10,6.0,14.0,62,-99.99,,,-99.99,,2013-03-01 15:21:00,
2013-03-01 09:32:00,23.0,12.0,-100.00,North,10,6.0,14.0,62,-99.99,,,-99.99,,2013-03-01 15:32:00,
2013-03-01 09:42:00,23.0,12.0,-100.00,North,10,6.0,14.0,62,-99.99,,,-99.99,,2013-03-01 15:42:00,
2013-03-01 09:52:00,23.0,12.0,-100.00,North,10,6.0,14.0,62,-99.99,,,-99.99,,2013-03-01 15:52:00,
2013-03-01 10:00:00,23.0,12.0,-100.00,North,5,6.0,21.0,62,-99.99,,,-99.99,,2013-03-01 16:00:00,
2013-03-01 10:22:00,23.0,12.0,-100.00,North,5,6.0,21.0,62,-99.99,,,-99.99,,2013-03-01 16:22:00,
2013-03-01 10:32:00,23.0,12.0,-100.00,North,5,6.0,21.0,62,-99.99,,,-99.99,,2013-03-01 16:32:00,
2013-03-01 10:42:00,23.0,12.0,-100.00,North,5,6.0,21.0,62,-99.99,,,-99.99,,2013-03-01 16:42:00,
2013-03-01 10:52:00,23.0,12.0,-100.00,North,5,6.0,21.0,62,-99.99,,,-99.99,,2013-03-01 16:52:00,
2013-03-01 11:01:00,24.0,12.0,-100.00,North,5,7.0,19.0,61,-99.99,,,-99.99,,2013-03-01 17:01:00,
2013-03-01 11:21:00,24.0,12.0,-100.00,North,5,7.0,19.0,61,-99.99,,,-99.99,,2013-03-01 17:21:00,
2013-03-01 11:32:00,24.0,12.0,-100.00,North,5,7.0,19.0,61,-99.99,,,-99.99,,2013-03-01 17:32:00,
2013-03-01 11:42:00,24.0,12.0,-100.00,North,5,7.0,19.0,61,-99.99,,,-99.99,,2013-03-01 17:42:00,
2013-03-01 11:52:00,24.0,12.0,-100.00,North,5,7.0,19.0,61,-99.99,,,-99.99,,2013-03-01 17:52:00,
2013-03-01 12:00:00,24.0,13.0,-100.00,North,5,7.0,16.0,61,-99.99,,,-99.99,,2013-03-01 18:00:00,
2013-03-01 12:22:00,24.0,13.0,-100.00,North,5,7.0,16.0,61,-99.99,,,-99.99,,2013-03-01 18:22:00,
2013-03-01 12:32:00,24.0,13.0,-100.00,North,5,7.0,16.0,61,-99.99,,,-99.99,,2013-03-01 18:32:00,
2013-03-01 12:42:00,24.0,13.0,-100.00,North,5,7.0,16.0,61,-99.99,,,-99.99,,2013-03-01 18:42:00,
2013-03-01 12:52:00,24.0,13.0,-100.00,North,5,7.0,16.0,61,-99.99,,,-99.99,,2013-03-01 18:52:00,
2013-03-01 13:01:00,25.0,13.0,-100.00,NNE,15,9.0,17.0,61,-99.99,,,-99.99,,2013-03-01 19:01:00,
2013-03-01 13:21:00,25.0,13.0,-100.00,NNE,15,9.0,17.0,61,-99.99,,,-99.99,,2013-03-01 19:21:00,
2013-03-01 13:32:00,25.0,13.0,-100.00,NNE,15,9.0,17.0,61,-99.99,,,-99.99,,2013-03-01 19:32:00,
2013-03-01 13:42:00,25.0,13.0,-100.00,NNE,15,9.0,17.0,61,-99.99,,,-99.99,,2013-03-01 19:42:00,
2013-03-01 13:52:00,25.0,13.0,-100.00,NNE,15,9.0,17.0,61,-99.99,,,-99.99,,2013-03-01 19:52:00,
2013-03-01 14:01:00,26.0,14.0,-100.00,NNE,15,8.0,15.0,61,-99.99,,,-99.99,,2013-03-01 20:01:00,
2013-03-01 14:22:00,26.0,14.0,-100.00,NNE,15,8.0,15.0,61,-99.99,,,-99.99,,2013-03-01 20:22:00,
2013-03-01 14:32:00,26.0,14.0,-100.00,NNE,15,8.0,15.0,61,-99.99,,,-99.99,,2013-03-01 20:32:00,
2013-03-01 14:42:00,26.0,14.0,-100.00,NNE,15,8.0,15.0,61,-99.99,,,-99.99,,2013-03-01 20:42:00,
2013-03-01 14:52:00,26.0,14.0,-100.00,NNE,15,8.0,15.0,61,-99.99,,,-99.99,,2013-03-01 20:52:00,
2013-03-01 15:00:00,26.0,13.0,-100.00,NNE,15,5.0,12.0,58,-99.99,,,-99.99,,2013-03-01 21:00:00,
2013-03-01 15:22:00,26.0,13.0,-100.00,NNE,15,5.0,12.0,58,-99.99,,,-99.99,,2013-03-01 21:22:00,
2013-03-01 15:32:00,26.0,13.0,-100.00,NNE,15,5.0,12.0,58,-99.99,,,-99.99,,2013-03-01 21:32:00,
2013-03-01 15:42:00,26.0,13.0,-100.00,NNE,15,5.0,12.0,58,-99.99,,,-99.99,,2013-03-01 21:42:00,
2013-03-01 15:52:00,26.0,13.0,-100.00,NNE,15,5.0,12.0,58,-99.99,,,-99.99,,2013-03-01 21:52:00,
2013-03-01 16:01:00,27.0,11.0,-100.00,NNE,15,6.0,12.0,52,-99.99,,,-99.99,,2013-03-01 22:01:00,
2013-03-01 16:22:00,27.0,11.0,-100.00,NNE,15,6.0,12.0,52,-99.99,,,-99.99,,2013-03-01 22:22:00,
2013-03-01 16:32:00,27.0,11.0,-100.00,NNE,15,6.0,12.0,52,-99.99,,,-99.99,,2013-03-01 22:32:00,
2013-03-01 16:42:00,27.0,11.0,-100.00,NNE,15,6.0,12.0,52,-99.99,,,-99.99,,2013-03-01 22:42:00,
2013-03-01 16:52:00,27.0,11.0,-100.00,NNE,15,6.0,12.0,52,-99.99,,,-99.99,,2013-03-01 22:52:00,
2013-03-01 17:01:00,26.0,11.0,-100.00,NNE,15,4.0,9.0,52,-99.99,,,-99.99,,2013-03-01 23:01:00,
2013-03-01 17:21:00,26.0,11.0,-100.00,NNE,15,4.0,9.0,52,-99.99,,,-99.99,,2013-03-01 23:21:00,
2013-03-01 17:32:00,26.0,11.0,-100.00,NNE,15,4.0,9.0,52,-99.99,,,-99.99,,2013-03-01 23:32:00,
2013-03-01 17:42:00,26.0,11.0,-100.00,NNE,15,4.0,9.0,52,-99.99,,,-99.99,,2013-03-01 23:42:00,
2013-03-01 17:52:00,26.0,11.0,-100.00,NNE,15,4.0,9.0,52,-99.99,,,-99.99,,2013-03-01 23:52:00,
2013-03-01 18:01:00,25.0,15.0,-100.00,North,5,1.0,7.0,67,-99.99,,,-99.99,,2013-03-02 00:01:00,
2013-03-01 18:22:00,25.0,15.0,-100.00,North,5,1.0,7.0,67,-99.99,,,-99.99,,2013-03-02 00:22:00,
2013-03-01 18:32:00,25.0,15.0,-100.00,North,5,1.0,7.0,67,-99.99,,,-99.99,,2013-03-02 00:32:00,
2013-03-01 18:42:00,25.0,15.0,-100.00,North,5,1.0,7.0,67,-99.99,,,-99.99,,2013-03-02 00:42:00,
2013-03-01 18:52:00,25.0,15.0,-100.00,North,5,1.0,7.0,67,-99.99,,,-99.99,,2013-03-02 00:52:00,
2013-03-01 19:01:00,22.0,9.0,-100.00,ENE,60,0.0,0.0,58,-99.99,,,-99.99,,2013-03-02 01:01:00,
2013-03-01 19:21:00,22.0,9.0,-100.00,ENE,60,0.0,0.0,58,-99.99,,,-99.99,,2013-03-02 01:21:00,
2013-03-01 19:32:00,22.0,9.0,-100.00,ENE,60,0.0,0.0,58,-99.99,,,-99.99,,2013-03-02 01:32:00,
2013-03-01 19:42:00,22.0,9.0,-100.00,ENE,60,0.0,0.0,58,-99.99,,,-99.99,,2013-03-02 01:42:00,
2013-03-01 19:52:00,22.0,9.0,-100.00,ENE,60,0.0,0.0,58,-99.99,,,-99.99,,2013-03-02 01:52:00,
2013-03-01 20:01:00,20.0,14.0,-100.00,ENE,60,0.0,0.0,77,-99.99,,,-99.99,,2013-03-02 02:01:00,
2013-03-01 20:22:00,20.0,14.0,-100.00,ENE,60,0.0,0.0,77,-99.99,,,-99.99,,2013-03-02 02:22:00,
2013-03-01 20:32:00,20.0,14.0,-100.00,ENE,60,0.0,0.0,77,-99.99,,,-99.99,,2013-03-02 02:32:00,
2013-03-01 20:42:00,20.0,14.0,-100.00,ENE,60,0.0,0.0,77,-99.99,,,-99.99,,2013-03-02 02:42:00,
2013-03-01 20:52:00,20.0,14.0,-100.00,ENE,60,0.0,0.0,77,-99.99,,,-99.99,,2013-03-02 02:52:00,
2013-03-01 21:01:00,19.0,11.0,-100.00,ESE,105,0.0,1.0,72,-99.99,,,-99.99,,2013-03-02 03:01:00,
2013-03-01 21:22:00,19.0,11.0,-100.00,ESE,105,0.0,1.0,72,-99.99,,,-99.99,,2013-03-02 03:22:00,
2013-03-01 21:32:00,19.0,11.0,-100.00,ESE,105,0.0,1.0,72,-99.99,,,-99.99,,2013-03-02 03:32:00,
2013-03-01 21:42:00,19.0,11.0,-100.00,ESE,105,0.0,1.0,72,-99.99,,,-99.99,,2013-03-02 03:42:00,
2013-03-01 21:52:00,19.0,11.0,-100.00,ESE,105,0.0,1.0,72,-99.99,,,-99.99,,2013-03-02 03:52:00,
2013-03-01 22:01:00,17.0,11.0,-100.00,NNE,30,1.0,3.0,78,-99.99,,,-99.99,,2013-03-02 04:01:00,
2013-03-01 22:22:00,17.0,11.0,-100.00,NNE,30,1.0,3.0,78,-99.99,,,-99.99,,2013-03-02 04:22:00,
2013-03-01 22:32:00,17.0,11.0,-100.00,NNE,30,1.0,3.0,78,-99.99,,,-99.99,,2013-03-02 04:32:00,
2013-03-01 22:42:00,17.0,11.0,-100.00,NNE,30,1.0,3.0,78,-99.99,,,-99.99,,2013-03-02 04:42:00,
2013-03-01 22:52:00,17.0,11.0,-100.00,NNE,30,1.0,3.0,78,-99.99,,,-99.99,,2013-03-02 04:52:00,
2013-03-01 23:01:00,16.0,10.0,-100.00,NNE,20,0.0,2.0,77,-99.99,,,-99.99,,2013-03-02 05:01:00,
2013-03-01 23:23:00,16.0,10.0,-100.00,NNE,20,0.0,2.0,77,-99.99,,,-99.99,,2013-03-02 05:23:00,
2013-03-01 23:32:00,16.0,10.0,-100.00,NNE,20,0.0,2.0,77,-99.99,,,-99.99,,2013-03-02 05:32:00,
2013-03-01 23:42:00,16.0,10.0,-100.00,NNE,20,0.0,2.0,77,-99.99,,,-99.99,,2013-03-02 05:42:00,
2013-03-01 23:52:00,16.0,10.0,-100.00,NNE,20,0.0,2.0,77,-99.99,,,-99.99,,2013-03-02 05:52:00,